[[[{"header":{"parameterUnit":"kt","parameterCategory":2,"dx":1,"dy":1,"la1":30.253999710083008,"la2":30.299108505249023,"lo1":-89.0895004272461,"lo2":-89.04439544677734,"nx":28,"ny":28,"refTime":"2022-09-24T21:00:00:Z","depth":0,"parameterNumber":1,"parameterNumberName":"U-component_of_WINDS"},"data":[5.6316,5.6389,5.6359,5.6428,5.6414,5.6455,5.6461,5.6465,5.6461,5.6508,5.6529,5.6508,5.6493,5.6511,5.6533,5.6523,5.6531,5.6577,5.6556,5.6381,5.6354,5.6329,5.6307,5.6581,5.6581,5.6739,5.6741,5.6742,5.6181,5.6167,5.6197,5.6206,5.623,5.6167,5.617,5.6193,5.6233,5.6231,5.6252,5.6291,5.6319,5.6288,5.6309,5.6341,5.6312,5.6349,5.6342,5.634,5.6153,5.613,5.6371,5.6371,5.6371,5.6371,5.6371,5.6371,5.5927,5.5974,5.5961,5.5993,5.5991,5.5997,5.6036,5.6009,5.6038,5.6058,5.602,5.6065,5.6057,5.6071,5.6069,5.6102,5.6057,5.6087,5.6093,5.61,5.6109,5.5873,5.6106,5.6105,5.6105,5.6104,5.6103,0,5.573,5.5702,5.573,5.5749,5.5771,5.5784,5.5791,5.5815,5.5748,5.5776,5.5813,5.583,5.5863,5.5893,5.5909,5.59,5.5837,5.5831,5.585,5.5864,5.5874,5.5862,5.5552,5.5823,5.582,5.5819,5.5817,5.5816,5.5465,5.5527,5.5502,5.5526,5.5522,5.5563,5.5581,5.5518,5.5539,5.5539,5.5584,5.5616,5.5637,5.5703,5.5672,5.5697,5.5665,5.577,5.5669,5.568,5.5658,5.5652,5.5655,5.579,5.5793,5.5796,5.5798,0,5.5318,5.5271,5.5357,5.5328,5.5322,5.5389,5.5363,5.5409,5.5379,5.5437,5.5447,5.54,5.5439,5.5391,5.5427,5.54,5.5503,5.5476,5.5502,5.5492,5.5576,5.5566,5.5871,5.5905,5.5628,5.5631,5.5633,0,5.5071,5.5155,5.5079,5.5132,5.5222,5.5156,5.5247,5.523,5.5223,5.5269,5.5191,5.5235,5.5167,5.5204,5.5165,5.5242,5.5251,5.5233,5.522,5.5236,5.5238,5.5243,5.5227,5.5199,5.5197,5.5196,5.5195,0,5.4839,5.4901,5.4987,5.4993,5.4972,5.5014,5.5008,5.5001,5.502,5.5038,5.5049,5.5077,5.509,5.5111,5.5059,5.4992,5.5156,5.5051,5.5135,5.5137,5.5171,5.5168,5.5455,5.5193,5.5193,5.5192,5.5192,0,5.4631,5.4651,5.4786,5.4763,5.4782,5.4842,5.4861,5.4901,5.49,5.4878,5.4892,5.4833,5.4902,5.4801,5.4892,5.4816,5.4834,5.4824,5.4829,5.4827,5.4714,5.4874,5.5158,5.5182,5.4831,5.4828,5.4826,0,5.4374,5.4499,5.4443,5.4574,5.4624,5.4529,5.4593,5.4596,5.4573,5.4611,5.4585,5.4632,5.4547,5.4554,5.4607,5.4581,5.468,5.4568,5.4617,5.462,5.4613,5.4875,5.4925,5.5102,5.4787,5.4791,5.4794,0,5.4169,5.4144,5.4172,5.4174,5.4169,5.4213,5.4289,5.4319,5.4347,5.4362,5.442,5.4489,5.4423,5.4439,5.4395,5.4452,5.4611,5.4376,5.4375,5.4414,5.4766,5.4812,5.4843,5.4569,5.4573,5.4577,5.4763,0,5.3851,5.391,5.3986,5.4,5.4028,5.411,5.4058,5.4093,5.4046,5.4019,5.4109,5.4102,5.4135,5.416,5.4118,5.4266,5.4232,5.4166,5.4059,5.4235,5.4294,5.4319,5.3974,5.3971,5.3968,5.3966,0,0,5.3613,5.3697,5.3636,5.3707,5.3725,5.3626,5.3718,5.3725,5.3743,5.3756,5.3698,5.3792,5.379,5.3903,5.3954,5.3972,5.3991,5.3934,5.4153,5.4174,5.4194,5.4258,5.4285,5.3961,5.396,5.3959,5.3958,0,5.3485,5.3486,5.3579,5.3583,5.3587,5.3555,5.3578,5.3564,5.3552,5.3642,5.3558,5.3607,5.3689,5.3693,5.3707,5.392,5.3852,5.3935,5.4063,5.4127,5.4152,5.4173,5.4242,5.4269,5.3951,5.3951,5.3952,0,5.3268,5.3258,5.3299,5.334,5.3342,5.34,5.3275,5.3345,5.3385,5.3276,5.3366,5.3357,5.3363,5.348,5.3531,5.3479,5.3728,5.3645,5.3661,5.3664,5.3723,5.3754,5.3781,5.3426,5.3424,5.3423,0,0,5.3164,5.3221,5.3191,5.3309,5.3316,5.3271,5.3298,5.3254,5.3261,5.3265,5.325,5.326,5.3305,5.3337,5.3377,5.3516,5.3509,5.3582,5.3607,5.3627,5.3641,5.3706,5.3736,5.3417,5.3416,5.3416,0,0,5.3114,5.3084,5.3035,5.3165,5.3175,5.3154,5.3227,5.3167,5.3198,5.3183,5.3113,5.3113,5.3223,5.3218,5.314,5.3337,5.3235,5.3252,5.3336,5.3367,5.3391,5.3388,5.3011,0,0,0,0,0,5.2956,5.3087,5.3043,5.3057,5.3111,5.3178,5.3184,5.3129,5.3055,5.3113,5.3091,5.302,5.316,5.309,5.3105,5.3191,5.3336,5.3351,5.3364,5.3505,5.3537,5.3565,0,0,0,0,0,0,5.2961,5.2979,5.3039,5.3025,5.3036,5.3173,5.3034,5.3023,5.3047,5.3032,5.3026,5.302,5.2974,5.3078,5.3093,5.3175,5.3006,5.3342,5.3354,5.3365,5.3516,5.3543,5.3565,0,0,0,0,0,5.2965,5.2979,5.308,5.3023,5.3033,5.299,5.3029,5.3018,5.3036,5.3003,5.2994,5.2992,5.2978,5.2987,5.3087,5.317,5.2996,5.3001,5.335,5.3359,5.3368,5.3529,0,0,0,0,0,0,5.2968,5.297,5.3081,5.3082,5.2969,5.2981,5.2981,5.3015,5.3005,5.2997,5.2965,5.2953,5.2983,5.2988,5.2995,5.3171,5.2987,5.2993,5.2997,5.3357,5.3365,5.3371,0,0,0,0,0,0,5.2961,5.2971,5.3081,5.3017,5.301,5.2973,5.2974,5.3052,5.3006,5.2967,5.2956,5.296,5.2972,5.299,5.2995,5.312,5.2981,5.2986,5.299,5.2992,5.3363,5.3369,0,0,0,0,0,0,5.2965,5.2973,5.3016,5.3011,5.3005,5.3011,5.3041,5.31,5.2951,5.2969,5.2936,5.2929,5.2977,5.298,5.2996,5.3119,5.312,5.2981,5.2985,5.2987,5.2989,0,0,0,0,0,0,0,5.2967,5.2925,5.3075,5.3006,5.3,5.309,5.309,5.3091,5.2949,5.2943,5.2937,5.2932,5.2949,5.2955,5.2961,5.3118,0,0,5.298,5.2983,0,0,0,0,0,0,0,0,5.292,5.2924,5.3075,5.3075,5.3076,5.309,5.309,5.309,5.2948,5.2943,5.2938,5.2934,5.2951,5.2956,5.2961,0,0,0,0,0,0,0,0,0,0,0,0,0,0,0,5.3075,5.3075,0,5.309,5.309,5.309,5.2947,5.2943,5.294,5.2936,5.2952,5.2956,5.296,0,0,0,0,0,0,0,0,0,0,0,0,0,0,0,0,0,0,0,0,0,0,0,0,0,0,0,0,0,0,0,0,0,0,0,0,0,0,0,0,0,0,0,0,0,0,0,0,0,0,0,0,0,0,0,0,0,0,0,0,0,0,0,0,0,0,0,0,0]}],[{"header":{"parameterUnit":"kt","parameterCategory":2,"dx":1,"dy":1,"la1":30.253999710083008,"la2":30.299108505249023,"lo1":-89.0895004272461,"lo2":-89.04439544677734,"nx":28,"ny":28,"refTime":"2022-09-24T21:00:00:Z","depth":0,"parameterNumber":2,"parameterNumberName":"V-component_of_WINDS"},"data":[7.4758,7.4931,7.4983,7.5203,7.5286,7.5443,7.5515,7.5612,7.5702,7.5892,7.6008,7.6074,7.618,7.6328,7.6453,7.6479,7.6526,7.655,7.6575,7.643,7.6413,7.6396,7.636,7.6561,7.6561,7.6717,7.6718,7.6719,7.4641,7.4727,7.486,7.5023,7.5136,7.5144,7.5273,7.5365,7.5504,7.5616,7.5735,7.5904,7.6043,7.6143,7.6283,7.6359,7.6369,7.6393,7.6386,7.6402,7.625,7.621,7.6383,7.6383,7.6383,7.6383,7.6383,7.6383,7.4443,7.4546,7.4676,7.4821,7.4917,7.5025,7.513,7.5211,7.5339,7.5497,7.5532,7.5688,7.5807,7.6001,7.6077,7.6197,7.6178,7.6219,7.6229,7.6237,7.6239,7.6,7.6223,7.6223,7.6223,7.6223,7.6222,0,7.4313,7.435,7.4482,7.4629,7.4738,7.4856,7.4972,7.5038,7.5131,7.5232,7.5382,7.5476,7.5659,7.5802,7.5945,7.6017,7.603,7.6039,7.6066,7.605,7.6016,7.6032,7.5778,7.6031,7.603,7.6029,7.6028,7.6027,7.4112,7.4228,7.4391,7.4476,7.4554,7.469,7.4781,7.4855,7.4948,7.5099,7.5183,7.533,7.5451,7.5679,7.5767,7.5903,7.591,7.6001,7.5931,7.591,7.5907,7.5898,7.5908,7.6012,7.6014,7.6016,7.6017,0,7.3993,7.4081,7.4276,7.4426,7.4467,7.4582,7.4707,7.4812,7.488,7.5031,7.5071,7.5175,7.5319,7.5396,7.5574,7.5609,7.5789,7.5795,7.5748,7.5752,7.5837,7.5827,7.6112,7.6151,7.5948,7.595,7.5951,0,7.3855,7.4004,7.4124,7.4233,7.4399,7.4472,7.4632,7.4707,7.4815,7.4936,7.4968,7.5079,7.516,7.5281,7.5332,7.5494,7.5529,7.5563,7.5574,7.5559,7.5554,7.5604,7.5593,7.56,7.5599,7.5597,7.5596,0,7.3657,7.3898,7.4077,7.4145,7.432,7.44,7.4476,7.4598,7.4686,7.4812,7.4869,7.501,7.5086,7.5193,7.5257,7.5206,7.5459,7.5402,7.5493,7.5491,7.5543,7.5538,7.5775,7.5594,7.5594,7.5593,7.5593,0,7.3558,7.3691,7.3938,7.4083,7.4143,7.426,7.4406,7.4525,7.4651,7.4693,7.4792,7.4822,7.4974,7.4911,7.5119,7.5034,7.5106,7.5154,7.5162,7.5177,7.5104,7.5222,7.5444,7.5467,7.5193,7.519,7.5187,0,7.3305,7.358,7.3646,7.3879,7.4016,7.4045,7.4175,7.4288,7.4355,7.4477,7.4549,7.4688,7.4658,7.4712,7.4805,7.4883,7.4994,7.4871,7.5037,7.5042,7.5,7.5206,7.5218,7.5387,7.5146,7.515,7.5153,0,7.3121,7.3337,7.3374,7.3455,7.362,7.3735,7.3886,7.4042,7.412,7.4244,7.4369,7.4568,7.4552,7.4641,7.468,7.4773,7.4921,7.4743,7.4747,7.4769,7.5133,7.5143,7.5172,7.4926,7.4931,7.4935,7.512,0,7.2943,7.3094,7.3201,7.338,7.3483,7.3635,7.3723,7.3817,7.3847,7.3915,7.4101,7.4214,7.437,7.4424,7.4453,7.4644,7.4623,7.4605,7.4548,7.4683,7.4746,7.4772,7.4447,7.4446,7.4445,7.4444,0,0,7.2677,7.2896,7.2966,7.3119,7.3209,7.3238,7.3392,7.3482,7.3665,7.3724,7.3694,7.399,7.4083,7.4299,7.4349,7.4413,7.4453,7.4403,7.4619,7.4638,7.4656,7.4722,7.4748,7.4442,7.4442,7.4441,7.4441,0,7.2631,7.2735,7.289,7.2988,7.3137,7.3203,7.324,7.3391,7.3442,7.3629,7.3646,7.3768,7.4005,7.4099,7.4178,7.438,7.4384,7.4422,7.4501,7.4606,7.4626,7.4645,7.4713,7.4737,7.4439,7.4439,7.4439,0,7.2462,7.2577,7.2662,7.2875,7.2972,7.3113,7.3076,7.3228,7.3332,7.3353,7.3537,7.3611,7.3746,7.3942,7.4033,7.4007,7.4316,7.4236,7.4244,7.4255,7.4361,7.4385,7.4407,7.4118,7.4117,7.4115,0,0,7.2409,7.2552,7.2698,7.2872,7.2932,7.3034,7.3118,7.3157,7.3282,7.3331,7.3427,7.3544,7.3681,7.377,7.3903,7.4108,7.4139,7.4193,7.4208,7.422,7.4237,7.4346,7.437,7.411,7.411,7.4109,0,0,7.2383,7.2561,7.257,7.2784,7.2904,7.3056,7.3156,7.317,7.3301,7.3293,7.3362,7.3396,7.3582,7.3654,7.357,7.3883,7.3825,7.3847,7.383,7.385,7.3865,7.3842,7.3544,0,0,0,0,0,7.2382,7.2539,7.2546,7.2595,7.2864,7.3052,7.3087,7.315,7.3107,7.3185,7.3267,7.3268,7.3622,7.355,7.3595,7.3687,7.4039,7.4051,7.4063,7.409,7.411,7.4127,0,0,0,0,0,0,7.2402,7.2463,7.2542,7.27,7.2761,7.3048,7.2989,7.301,7.3101,7.3098,7.3252,7.3273,7.3328,7.3531,7.3571,7.3657,7.3531,7.4044,7.4054,7.4064,7.4097,7.4113,7.4128,0,0,0,0,0,7.2419,7.2467,7.2882,7.2699,7.2751,7.2873,7.2983,7.3001,7.3072,7.32,7.322,7.3112,7.3328,7.3366,7.3555,7.3637,7.3504,7.3518,7.4051,7.4059,7.4067,7.4105,0,0,0,0,0,0,7.2431,7.2483,7.2894,7.2912,7.2645,7.2859,7.2895,7.2993,7.3168,7.3191,7.3061,7.3058,7.3331,7.336,7.3389,7.3627,7.3481,7.3497,7.3506,7.4057,7.4064,7.407,0,0,0,0,0,0,7.2457,7.2498,7.2903,7.2833,7.2844,7.2844,7.2877,7.3046,7.317,7.302,7.3022,7.3058,7.3286,7.3356,7.3379,7.364,7.3465,7.3479,7.3489,7.3495,7.4062,7.4068,0,0,0,0,0,0,7.2476,7.2511,7.2828,7.2837,7.2846,7.3055,7.2995,7.3265,7.3113,7.3011,7.3101,7.3096,7.3282,7.3306,7.3372,7.3624,7.3636,7.3465,7.3475,7.3482,7.3486,0,0,0,0,0,0,0,7.249,7.224,7.2786,7.284,7.2848,7.3081,7.3086,7.3091,7.3112,7.3107,7.3103,7.3098,7.3383,7.3399,7.3414,7.361,0,0,7.3464,7.3471,0,0,0,0,0,0,0,0,7.2227,7.2237,7.2787,7.279,7.2794,7.3082,7.3086,7.309,7.3111,7.3107,7.3104,7.31,7.3387,7.34,7.3413,0,0,0,0,0,0,0,0,0,0,0,0,0,0,0,7.2787,7.279,0,7.3082,7.3086,7.3089,7.3111,7.3108,7.3104,7.3101,7.3391,7.3401,7.3412,0,0,0,0,0,0,0,0,0,0,0,0,0,0,0,0,0,0,0,0,0,0,0,0,0,0,0,0,0,0,0,0,0,0,0,0,0,0,0,0,0,0,0,0,0,0,0,0,0,0,0,0,0,0,0,0,0,0,0,0,0,0,0,0,0,0,0,0,0]}]]]